Year,Month,Day,Hour,Minute,Value (Times are PST for windgust in km/hr)
2020,01,29,00,00,14.50
2020,01,29,00,01,11.30
2020,01,29,00,02,12.90
2020,01,29,00,03,17.70
2020,01,29,00,04,27.40
2020,01,29,00,05,12.90
2020,01,29,00,06,4.80
2020,01,29,00,07,9.60
2020,01,29,00,08,11.30
2020,01,29,00,09,19.30
2020,01,29,00,10,29.00
2020,01,29,00,11,16.10
2020,01,29,00,12,11.30
2020,01,29,00,13,20.90
2020,01,29,00,14,16.10
2020,01,29,00,15,14.50
2020,01,29,00,16,16.10
2020,01,29,00,17,35.40
2020,01,29,00,18,22.50
2020,01,29,00,19,16.10
2020,01,29,00,20,16.10
2020,01,29,00,21,14.50
2020,01,29,00,22,4.80
2020,01,29,00,23,12.90
2020,01,29,00,24,16.10
2020,01,29,00,25,9.60
2020,01,29,00,26,14.50
2020,01,29,00,27,9.60
2020,01,29,00,28,9.60
2020,01,29,00,29,17.70
2020,01,29,00,30,11.30
2020,01,29,00,31,14.50
2020,01,29,00,32,19.30
2020,01,29,00,33,25.70
2020,01,29,00,34,24.20
2020,01,29,00,35,24.20
2020,01,29,00,36,16.10
2020,01,29,00,37,19.30
2020,01,29,00,38,14.50
2020,01,29,00,39,16.10
2020,01,29,00,40,19.30
2020,01,29,00,41,27.40
2020,01,29,00,42,30.60
2020,01,29,00,43,25.70
2020,01,29,00,44,24.20
2020,01,29,00,45,51.50
2020,01,29,00,46,16.10
2020,01,29,00,47,32.20
2020,01,29,00,48,12.90
2020,01,29,00,49,20.90
2020,01,29,00,50,12.90
2020,01,29,00,51,25.70
2020,01,29,00,52,43.50
2020,01,29,00,53,24.20
2020,01,29,00,54,30.60
2020,01,29,00,55,24.20
2020,01,29,00,56,29.00
2020,01,29,00,57,29.00
2020,01,29,00,58,20.90
2020,01,29,00,59,19.30
2020,01,29,01,00,25.70
2020,01,29,01,01,24.20
2020,01,29,01,02,24.20
2020,01,29,01,03,14.50
2020,01,29,01,04,11.30
2020,01,29,01,05,14.50
2020,01,29,01,06,16.10
2020,01,29,01,07,11.30
2020,01,29,01,08,20.90
2020,01,29,01,09,20.90
2020,01,29,01,10,33.80
2020,01,29,01,11,38.60
2020,01,29,01,12,27.40
2020,01,29,01,13,29.00
2020,01,29,01,14,24.20
2020,01,29,01,15,35.40
2020,01,29,01,16,19.30
2020,01,29,01,17,11.30
2020,01,29,01,18,14.50
2020,01,29,01,19,25.70
2020,01,29,01,20,22.50
2020,01,29,01,21,25.70
2020,01,29,01,22,20.90
2020,01,29,01,23,25.70
2020,01,29,01,24,25.70
2020,01,29,01,25,25.70
2020,01,29,01,26,24.20
2020,01,29,01,27,27.40
2020,01,29,01,28,20.90
2020,01,29,01,29,19.30
2020,01,29,01,30,16.10
2020,01,29,01,31,17.70
2020,01,29,01,32,20.90
2020,01,29,01,33,6.40
2020,01,29,01,34,14.50
2020,01,29,01,35,29.00
2020,01,29,01,36,20.90
2020,01,29,01,37,27.40
2020,01,29,01,38,35.40
2020,01,29,01,39,30.60
2020,01,29,01,40,22.50
2020,01,29,01,41,27.40
2020,01,29,01,42,32.20
2020,01,29,01,43,16.10
2020,01,29,01,44,24.20
2020,01,29,01,45,22.50
2020,01,29,01,46,16.10
2020,01,29,01,47,24.20
2020,01,29,01,48,19.30
2020,01,29,01,49,11.30
2020,01,29,01,50,24.20
2020,01,29,01,51,17.70
2020,01,29,01,52,17.70
2020,01,29,01,53,38.60
2020,01,29,01,54,25.70
2020,01,29,01,55,29.00
2020,01,29,01,56,22.50
2020,01,29,01,57,20.90
2020,01,29,01,58,25.70
2020,01,29,01,59,9.60
2020,01,29,02,00,22.50
2020,01,29,02,01,27.40
2020,01,29,02,02,22.50
2020,01,29,02,03,16.10
2020,01,29,02,04,20.90
2020,01,29,02,05,14.50
2020,01,29,02,06,25.70
2020,01,29,02,07,25.70
2020,01,29,02,08,12.90
2020,01,29,02,09,17.70
2020,01,29,02,10,25.70
2020,01,29,02,11,14.50
2020,01,29,02,12,14.50
2020,01,29,02,13,17.70
2020,01,29,02,14,9.60
2020,01,29,02,15,20.90
2020,01,29,02,16,24.20
2020,01,29,02,17,32.20
2020,01,29,02,18,20.90
2020,01,29,02,19,29.00
2020,01,29,02,20,19.30
2020,01,29,02,21,25.70
2020,01,29,02,22,20.90
2020,01,29,02,23,22.50
2020,01,29,02,24,27.40
2020,01,29,02,25,20.90
2020,01,29,02,26,20.90
2020,01,29,02,27,20.90
2020,01,29,02,28,17.70
2020,01,29,02,29,24.20
2020,01,29,02,30,30.60
2020,01,29,02,31,49.90
2020,01,29,02,32,19.30
2020,01,29,02,33,17.70
2020,01,29,02,34,25.70
2020,01,29,02,35,30.60
2020,01,29,02,36,24.20
2020,01,29,02,37,11.30
2020,01,29,02,38,17.70
2020,01,29,02,39,16.10
2020,01,29,02,40,17.70
2020,01,29,02,41,16.10
2020,01,29,02,42,25.70
2020,01,29,02,43,16.10
2020,01,29,02,44,17.70
2020,01,29,02,45,19.30
2020,01,29,02,46,9.60
2020,01,29,02,47,16.10
2020,01,29,02,48,30.60
2020,01,29,02,49,14.50
2020,01,29,02,50,14.50
2020,01,29,02,51,25.70
2020,01,29,02,52,20.90
2020,01,29,02,53,19.30
2020,01,29,02,54,6.40
2020,01,29,02,55,19.30
2020,01,29,02,56,27.40
2020,01,29,02,57,22.50
2020,01,29,02,58,14.50
2020,01,29,02,59,17.70
2020,01,29,03,00,9.60
2020,01,29,03,01,11.30
2020,01,29,03,02,30.60
2020,01,29,03,03,24.20
2020,01,29,03,04,24.20
2020,01,29,03,05,17.70
2020,01,29,03,06,27.40
2020,01,29,03,07,30.60
2020,01,29,03,08,14.50
2020,01,29,03,09,17.70
2020,01,29,03,10,24.20
2020,01,29,03,11,11.30
2020,01,29,03,12,14.50
2020,01,29,03,13,22.50
2020,01,29,03,14,16.10
2020,01,29,03,15,16.10
2020,01,29,03,16,9.60
2020,01,29,03,17,19.30
2020,01,29,03,18,20.90
2020,01,29,03,19,25.70
2020,01,29,03,20,20.90
2020,01,29,03,21,22.50
2020,01,29,03,22,24.20
2020,01,29,03,23,16.10
2020,01,29,03,24,22.50
2020,01,29,03,25,25.70
2020,01,29,03,26,29.00
2020,01,29,03,27,22.50
2020,01,29,03,28,33.80
2020,01,29,03,29,19.30
2020,01,29,03,30,19.30
2020,01,29,03,31,27.40
2020,01,29,03,32,16.10
2020,01,29,03,33,14.50
2020,01,29,03,34,19.30
2020,01,29,03,35,29.00
2020,01,29,03,36,37.00
2020,01,29,03,37,17.70
2020,01,29,03,38,46.70
2020,01,29,03,39,29.00
2020,01,29,03,40,19.30
2020,01,29,03,41,11.30
2020,01,29,03,42,27.40
2020,01,29,03,43,29.00
2020,01,29,03,44,14.50
2020,01,29,03,45,17.70
2020,01,29,03,46,25.70
2020,01,29,03,47,22.50
2020,01,29,03,48,20.90
2020,01,29,03,49,16.10
2020,01,29,03,50,33.80
2020,01,29,03,51,20.90
2020,01,29,03,52,22.50
2020,01,29,03,53,19.30
2020,01,29,03,54,16.10
2020,01,29,03,55,27.40
2020,01,29,03,56,24.20
2020,01,29,03,57,24.20
2020,01,29,03,58,32.20
2020,01,29,03,59,14.50
2020,01,29,04,00,16.10
2020,01,29,04,01,20.90
2020,01,29,04,02,14.50
2020,01,29,04,03,17.70
2020,01,29,04,04,14.50
2020,01,29,04,05,14.50
2020,01,29,04,06,40.20
2020,01,29,04,07,12.90
2020,01,29,04,08,29.00
2020,01,29,04,09,22.50
2020,01,29,04,10,17.70
2020,01,29,04,11,19.30
2020,01,29,04,12,29.00
2020,01,29,04,13,16.10
2020,01,29,04,14,27.40
2020,01,29,04,15,20.90
2020,01,29,04,16,20.90
2020,01,29,04,17,40.20
2020,01,29,04,18,19.30
2020,01,29,04,19,20.90
2020,01,29,04,20,19.30
2020,01,29,04,21,30.60
2020,01,29,04,22,16.10
2020,01,29,04,23,27.40
2020,01,29,04,24,22.50
2020,01,29,04,25,24.20
2020,01,29,04,26,24.20
2020,01,29,04,27,27.40
2020,01,29,04,28,17.70
2020,01,29,04,29,22.50
2020,01,29,04,30,8.10
2020,01,29,04,31,11.30
2020,01,29,04,32,6.40
2020,01,29,04,33,17.70
2020,01,29,04,34,19.30
2020,01,29,04,35,20.90
2020,01,29,04,36,22.50
2020,01,29,04,37,19.30
2020,01,29,04,38,4.80
2020,01,29,04,39,12.90
2020,01,29,04,40,19.30
2020,01,29,04,41,33.80
2020,01,29,04,42,16.10
2020,01,29,04,43,11.30
2020,01,29,04,44,20.90
2020,01,29,04,45,17.70
2020,01,29,04,46,22.50
2020,01,29,04,47,17.70
2020,01,29,04,48,14.50
2020,01,29,04,49,14.50
2020,01,29,04,50,25.70
2020,01,29,04,51,32.20
2020,01,29,04,52,56.30
2020,01,29,04,53,29.00
2020,01,29,04,54,14.50
2020,01,29,04,55,6.40
2020,01,29,04,56,19.30
2020,01,29,04,57,22.50
2020,01,29,04,58,17.70
2020,01,29,04,59,9.60
2020,01,29,05,00,20.90
2020,01,29,05,01,22.50
2020,01,29,05,02,16.10
2020,01,29,05,03,29.00
2020,01,29,05,04,6.40
2020,01,29,05,05,17.70
2020,01,29,05,06,22.50
2020,01,29,05,07,24.20
2020,01,29,05,08,17.70
2020,01,29,05,09,30.60
2020,01,29,05,10,20.90
2020,01,29,05,11,14.50
2020,01,29,05,12,16.10
2020,01,29,05,13,12.90
2020,01,29,05,14,20.90
2020,01,29,05,15,16.10
2020,01,29,05,16,30.60
2020,01,29,05,17,17.70
2020,01,29,05,18,12.90
2020,01,29,05,19,12.90
2020,01,29,05,20,25.70
2020,01,29,05,21,19.30
2020,01,29,05,22,35.40
2020,01,29,05,23,14.50
2020,01,29,05,24,27.40
2020,01,29,05,25,37.00
2020,01,29,05,26,22.50
2020,01,29,05,27,14.50
2020,01,29,05,28,16.10
2020,01,29,05,29,17.70
2020,01,29,05,30,37.00
2020,01,29,05,31,19.30
2020,01,29,05,32,20.90
2020,01,29,05,33,27.40
2020,01,29,05,34,19.30
2020,01,29,05,35,24.20
2020,01,29,05,36,17.70
2020,01,29,05,37,33.80
2020,01,29,05,38,30.60
2020,01,29,05,39,32.20
2020,01,29,05,40,19.30
2020,01,29,05,41,30.60
2020,01,29,05,42,12.90
2020,01,29,05,43,27.40
2020,01,29,05,44,29.00
2020,01,29,05,45,29.00
2020,01,29,05,46,37.00
2020,01,29,05,47,22.50
2020,01,29,05,48,35.40
2020,01,29,05,49,25.70
2020,01,29,05,50,12.90
2020,01,29,05,51,20.90
2020,01,29,05,52,20.90
2020,01,29,05,53,24.20
2020,01,29,05,54,22.50
2020,01,29,05,55,19.30
2020,01,29,05,56,16.10
2020,01,29,05,57,12.90
2020,01,29,05,58,8.10
2020,01,29,05,59,8.10
2020,01,29,06,00,14.50
2020,01,29,06,01,11.30
2020,01,29,06,02,22.50
2020,01,29,06,03,11.30
2020,01,29,06,04,11.30
2020,01,29,06,05,20.90
2020,01,29,06,06,32.20
2020,01,29,06,07,22.50
2020,01,29,06,08,17.70
2020,01,29,06,09,11.30
2020,01,29,06,10,14.50
2020,01,29,06,11,16.10
2020,01,29,06,12,20.90
2020,01,29,06,13,19.30
2020,01,29,06,14,9.60
2020,01,29,06,15,12.90
2020,01,29,06,16,16.10
2020,01,29,06,17,24.20
2020,01,29,06,18,29.00
2020,01,29,06,19,12.90
2020,01,29,06,20,9.60
2020,01,29,06,21,14.50
2020,01,29,06,22,19.30
2020,01,29,06,23,32.20
2020,01,29,06,24,9.60
2020,01,29,06,25,19.30
2020,01,29,06,26,12.90
2020,01,29,06,27,11.30
2020,01,29,06,28,19.30
2020,01,29,06,29,16.10
2020,01,29,06,30,12.90
2020,01,29,06,31,22.50
2020,01,29,06,32,29.00
2020,01,29,06,33,17.70
2020,01,29,06,34,27.40
2020,01,29,06,35,25.70
2020,01,29,06,36,27.40
2020,01,29,06,37,24.20
2020,01,29,06,38,6.40
2020,01,29,06,39,11.30
2020,01,29,06,40,19.30
2020,01,29,06,41,37.00
2020,01,29,06,42,22.50
2020,01,29,06,43,17.70
2020,01,29,06,44,24.20
2020,01,29,06,45,14.50
2020,01,29,06,46,9.60
2020,01,29,06,47,12.90
2020,01,29,06,48,20.90
2020,01,29,06,49,17.70
2020,01,29,06,50,14.50
2020,01,29,06,51,8.10
2020,01,29,06,52,17.70
2020,01,29,06,53,16.10
2020,01,29,06,54,30.60
2020,01,29,06,55,16.10
2020,01,29,06,56,19.30
2020,01,29,06,57,19.30
2020,01,29,06,58,22.50
2020,01,29,06,59,24.20
2020,01,29,07,00,12.90
2020,01,29,07,01,19.30
2020,01,29,07,02,19.30
2020,01,29,07,03,9.60
2020,01,29,07,04,20.90
2020,01,29,07,05,22.50
2020,01,29,07,06,19.30
2020,01,29,07,07,8.10
2020,01,29,07,08,25.70
2020,01,29,07,09,16.10
2020,01,29,07,10,17.70
2020,01,29,07,11,12.90
2020,01,29,07,12,19.30
2020,01,29,07,13,17.70
2020,01,29,07,14,12.90
2020,01,29,07,15,12.90
2020,01,29,07,16,14.50
2020,01,29,07,17,16.10
2020,01,29,07,18,14.50
2020,01,29,07,19,22.50
2020,01,29,07,20,17.70
2020,01,29,07,21,29.00
2020,01,29,07,22,22.50
2020,01,29,07,23,11.30
2020,01,29,07,24,11.30
2020,01,29,07,25,17.70
2020,01,29,07,26,16.10
2020,01,29,07,27,24.20
2020,01,29,07,28,14.50
2020,01,29,07,29,16.10
2020,01,29,07,30,27.40
2020,01,29,07,31,12.90
2020,01,29,07,32,17.70
2020,01,29,07,33,11.30
2020,01,29,07,34,17.70
2020,01,29,07,35,22.50
2020,01,29,07,36,17.70
2020,01,29,07,37,24.20
2020,01,29,07,38,9.60
2020,01,29,07,39,37.00
2020,01,29,07,40,20.90
2020,01,29,07,41,17.70
2020,01,29,07,42,12.90
2020,01,29,07,43,16.10
2020,01,29,07,44,11.30
2020,01,29,07,45,11.30
2020,01,29,07,46,22.50
2020,01,29,07,47,22.50
2020,01,29,07,48,20.90
2020,01,29,07,49,19.30
2020,01,29,07,50,25.70
2020,01,29,07,51,8.10
2020,01,29,07,52,17.70
2020,01,29,07,53,11.30
2020,01,29,07,54,11.30
2020,01,29,07,55,14.50
2020,01,29,07,56,14.50
2020,01,29,07,57,14.50
2020,01,29,07,58,19.30
2020,01,29,07,59,17.70
2020,01,29,08,00,12.90
2020,01,29,08,01,14.50
2020,01,29,08,02,11.30
2020,01,29,08,03,12.90
2020,01,29,08,04,12.90
2020,01,29,08,05,20.90
2020,01,29,08,06,24.20
2020,01,29,08,07,25.70
2020,01,29,08,08,9.60
2020,01,29,08,09,17.70
2020,01,29,08,10,11.30
2020,01,29,08,11,11.30
2020,01,29,08,12,22.50
2020,01,29,08,13,14.50
2020,01,29,08,14,19.30
2020,01,29,08,15,20.90
2020,01,29,08,16,20.90
2020,01,29,08,17,24.20
2020,01,29,08,18,19.30
2020,01,29,08,19,16.10
2020,01,29,08,20,14.50
2020,01,29,08,21,9.60
2020,01,29,08,22,16.10
2020,01,29,08,23,11.30
2020,01,29,08,24,9.60
2020,01,29,08,25,4.80
2020,01,29,08,26,11.30
2020,01,29,08,27,22.50
2020,01,29,08,28,14.50
2020,01,29,08,29,11.30
2020,01,29,08,30,17.70
2020,01,29,08,31,32.20
2020,01,29,08,32,16.10
2020,01,29,08,33,9.60
2020,01,29,08,34,8.10
2020,01,29,08,35,27.40
2020,01,29,08,36,14.50
2020,01,29,08,37,17.70
2020,01,29,08,38,12.90
2020,01,29,08,39,12.90
2020,01,29,08,40,12.90
2020,01,29,08,41,9.60
2020,01,29,08,42,25.70
2020,01,29,08,43,27.40
2020,01,29,08,44,27.40
2020,01,29,08,45,20.90
2020,01,29,08,46,14.50
2020,01,29,08,47,17.70
2020,01,29,08,48,22.50
2020,01,29,08,49,27.40
2020,01,29,08,50,20.90
2020,01,29,08,51,14.50
2020,01,29,08,52,12.90
2020,01,29,08,53,12.90
2020,01,29,08,54,14.50
2020,01,29,08,55,6.40
2020,01,29,08,56,14.50
2020,01,29,08,57,16.10
2020,01,29,08,58,11.30
2020,01,29,08,59,19.30
2020,01,29,09,00,16.10
2020,01,29,09,01,16.10
2020,01,29,09,02,19.30
2020,01,29,09,03,16.10
2020,01,29,09,04,16.10
2020,01,29,09,05,14.50
2020,01,29,09,06,12.90
2020,01,29,09,07,12.90
2020,01,29,09,08,19.30
2020,01,29,09,09,17.70
2020,01,29,09,10,25.70
2020,01,29,09,11,11.30
2020,01,29,09,12,19.30
2020,01,29,09,13,17.70
2020,01,29,09,14,24.20
2020,01,29,09,15,8.10
2020,01,29,09,16,12.90
2020,01,29,09,17,12.90
2020,01,29,09,18,12.90
2020,01,29,09,19,20.90
2020,01,29,09,20,12.90
2020,01,29,09,21,12.90
2020,01,29,09,22,24.20
2020,01,29,09,23,16.10
2020,01,29,09,24,14.50
2020,01,29,09,25,11.30
2020,01,29,09,26,8.10
2020,01,29,09,27,16.10
2020,01,29,09,28,14.50
2020,01,29,09,29,16.10
2020,01,29,09,30,16.10
2020,01,29,09,31,12.90
2020,01,29,09,32,33.80
2020,01,29,09,33,14.50
2020,01,29,09,34,11.30
2020,01,29,09,35,20.90
2020,01,29,09,36,12.90
2020,01,29,09,37,16.10
2020,01,29,09,38,16.10
2020,01,29,09,39,9.60
2020,01,29,09,40,9.60
2020,01,29,09,41,19.30
2020,01,29,09,42,12.90
2020,01,29,09,43,19.30
2020,01,29,09,44,9.60
2020,01,29,09,45,4.80
2020,01,29,09,46,6.40
2020,01,29,09,47,12.90
2020,01,29,09,48,17.70
2020,01,29,09,49,11.30
2020,01,29,09,50,4.80
2020,01,29,09,51,6.40
2020,01,29,09,52,6.40
2020,01,29,09,53,4.80
2020,01,29,09,54,4.80
2020,01,29,09,55,1.60
2020,01,29,09,57,6.40
2020,01,29,09,58,11.30
2020,01,29,09,59,14.50
2020,01,29,10,00,12.90
2020,01,29,10,01,16.10
2020,01,29,10,02,19.30
2020,01,29,10,03,20.90
2020,01,29,10,04,11.30
2020,01,29,10,05,12.90
2020,01,29,10,06,19.30
2020,01,29,10,07,11.30
2020,01,29,10,08,14.50
2020,01,29,10,09,16.10
2020,01,29,10,10,19.30
2020,01,29,10,11,20.90
2020,01,29,10,12,8.10
2020,01,29,10,13,6.40
2020,01,29,10,14,6.40
2020,01,29,10,15,6.40
2020,01,29,10,16,12.90
2020,01,29,10,17,4.80
2020,01,29,10,18,11.30
2020,01,29,10,19,14.50
2020,01,29,10,20,12.90
2020,01,29,10,21,6.40
2020,01,29,10,22,9.60
2020,01,29,10,23,6.40
2020,01,29,10,24,14.50
2020,01,29,10,25,14.50
2020,01,29,10,26,29.00
2020,01,29,10,27,12.90
2020,01,29,10,28,16.10
2020,01,29,10,29,11.30
2020,01,29,10,30,16.10
2020,01,29,10,31,8.10
2020,01,29,10,32,6.40
2020,01,29,10,33,6.40
2020,01,29,10,34,11.30
2020,01,29,10,35,8.10
2020,01,29,10,36,6.40
2020,01,29,10,37,8.10
2020,01,29,10,38,12.90
2020,01,29,10,39,11.30
2020,01,29,10,40,12.90
2020,01,29,10,41,9.60
2020,01,29,10,42,3.20
2020,01,29,10,43,6.40
2020,01,29,10,44,1.60
2020,01,29,10,46,4.80
2020,01,29,10,47,4.80
2020,01,29,10,48,6.40
2020,01,29,10,49,8.10
2020,01,29,10,50,6.40
2020,01,29,10,51,6.40
2020,01,29,10,52,4.80
2020,01,29,10,53,9.60
2020,01,29,10,54,6.40
2020,01,29,10,55,6.40
2020,01,29,10,56,6.40
2020,01,29,10,57,12.90
2020,01,29,10,58,14.50
2020,01,29,10,59,3.20
2020,01,29,11,00,6.40
2020,01,29,11,01,12.90
2020,01,29,11,02,11.30
2020,01,29,11,03,6.40
2020,01,29,11,04,4.80
2020,01,29,11,05,1.60
2020,01,29,11,07,8.10
2020,01,29,11,08,11.30
2020,01,29,11,09,9.60
2020,01,29,11,10,4.80
2020,01,29,11,11,4.80
2020,01,29,11,12,1.60
2020,01,29,11,13,6.40
2020,01,29,11,14,11.30
2020,01,29,11,15,3.20
2020,01,29,11,16,8.10
2020,01,29,11,17,4.80
2020,01,29,11,18,1.60
2020,01,29,11,24,4.80
2020,01,29,11,25,17.70
2020,01,29,11,26,12.90
2020,01,29,11,27,11.30
2020,01,29,11,28,11.30
2020,01,29,11,29,11.30
2020,01,29,11,30,6.40
2020,01,29,11,31,8.10
2020,01,29,11,33,1.60
2020,01,29,11,52,1.60
2020,01,29,11,54,1.60
2020,01,29,11,55,1.60
2020,01,29,11,57,3.20
2020,01,29,12,06,6.40
2020,01,29,12,07,4.80
2020,01,29,12,10,8.10
2020,01,29,12,11,8.10
2020,01,29,12,12,8.10
2020,01,29,12,13,3.20
2020,01,29,12,14,3.20
2020,01,29,12,15,4.80
2020,01,29,12,16,9.60
2020,01,29,12,17,12.90
2020,01,29,12,18,6.40
2020,01,29,12,19,4.80
2020,01,29,12,20,1.60
2020,01,29,12,33,1.60
2020,01,29,12,41,1.60
2020,01,29,12,59,1.60
2020,01,29,13,23,4.80
2020,01,29,13,24,1.60
2020,01,29,14,12,6.40
2020,01,29,14,13,6.40
2020,01,29,14,14,8.10
2020,01,29,14,15,6.40
2020,01,29,14,18,3.20
2020,01,29,14,39,1.60
2020,01,29,14,47,4.80
2020,01,29,14,48,1.60
2020,01,29,14,50,6.40
2020,01,29,14,51,6.40
2020,01,29,14,52,8.10
2020,01,29,14,53,6.40
2020,01,29,14,56,8.10
2020,01,29,14,57,6.40
2020,01,29,14,58,4.80
2020,01,29,14,59,6.40
2020,01,29,15,00,9.60
2020,01,29,15,01,9.60
2020,01,29,15,02,8.10
2020,01,29,15,03,4.80
2020,01,29,15,04,6.40
2020,01,29,15,05,9.60
2020,01,29,15,06,6.40
2020,01,29,15,07,1.60
2020,01,29,15,08,4.80
2020,01,29,15,09,3.20
2020,01,29,15,10,1.60
2020,01,29,15,11,3.20
2020,01,29,15,12,6.40
2020,01,29,15,13,6.40
2020,01,29,15,14,4.80
2020,01,29,15,15,1.60
2020,01,29,15,16,3.20
2020,01,29,15,17,3.20
2020,01,29,15,18,8.10
2020,01,29,15,19,6.40
2020,01,29,15,20,6.40
2020,01,29,15,21,4.80
2020,01,29,15,22,3.20
2020,01,29,15,23,1.60
2020,01,29,15,31,6.40
2020,01,29,15,32,6.40
2020,01,29,15,33,3.20
2020,01,29,15,34,3.20
2020,01,29,15,35,4.80
2020,01,29,15,36,9.60
2020,01,29,15,37,4.80
2020,01,29,15,38,1.60
2020,01,29,15,40,4.80
2020,01,29,15,41,6.40
2020,01,29,15,42,6.40
2020,01,29,15,43,6.40
2020,01,29,15,44,4.80
2020,01,29,15,45,1.60
2020,01,29,15,46,3.20
2020,01,29,15,47,6.40
2020,01,29,15,48,6.40
2020,01,29,15,49,4.80
2020,01,29,15,50,4.80
2020,01,29,15,51,4.80
2020,01,29,15,54,3.20
2020,01,29,15,59,6.40
2020,01,29,16,00,6.40
2020,01,29,16,01,6.40
2020,01,29,16,02,4.80
2020,01,29,16,03,3.20
2020,01,29,16,04,4.80
2020,01,29,16,05,6.40
2020,01,29,16,06,6.40
2020,01,29,16,07,3.20
2020,01,29,16,08,4.80
2020,01,29,16,09,3.20
2020,01,29,16,10,4.80
2020,01,29,16,11,4.80
2020,01,29,16,12,3.20
2020,01,29,16,13,3.20
2020,01,29,16,14,4.80
2020,01,29,16,15,4.80
2020,01,29,16,16,4.80
2020,01,29,16,17,4.80
2020,01,29,16,18,4.80
2020,01,29,16,19,4.80
2020,01,29,16,20,3.20
2020,01,29,16,29,3.20
2020,01,29,16,30,3.20
2020,01,29,16,39,3.20
2020,01,29,16,40,4.80
2020,01,29,16,41,1.60
2020,01,29,16,47,1.60
2020,01,29,16,48,1.60
2020,01,29,16,49,3.20
2020,01,29,16,52,4.80
2020,01,29,16,53,4.80
2020,01,29,16,54,4.80
2020,01,29,16,55,6.40
2020,01,29,16,56,4.80
2020,01,29,16,57,4.80
2020,01,29,16,58,4.80
2020,01,29,16,59,6.40
2020,01,29,17,00,8.10
2020,01,29,17,01,9.60
2020,01,29,17,02,8.10
2020,01,29,17,03,8.10
2020,01,29,17,04,4.80
2020,01,29,17,05,6.40
2020,01,29,17,06,3.20
2020,01,29,17,08,6.40
2020,01,29,17,09,3.20
2020,01,29,17,10,1.60
2020,01,29,17,14,3.20
2020,01,29,17,15,4.80
2020,01,29,17,16,4.80
2020,01,29,17,17,3.20
2020,01,29,17,19,4.80
2020,01,29,17,20,4.80
2020,01,29,17,21,4.80
2020,01,29,17,22,4.80
2020,01,29,17,26,1.60
2020,01,29,17,27,4.80
2020,01,29,17,28,4.80
2020,01,29,17,29,9.60
2020,01,29,17,30,9.60
2020,01,29,17,31,6.40
2020,01,29,17,32,6.40
2020,01,29,17,33,4.80
2020,01,29,17,34,3.20
2020,01,29,17,35,1.60
2020,01,29,17,40,1.60
2020,01,29,17,42,11.30
2020,01,29,17,43,9.60
2020,01,29,17,44,4.80
2020,01,29,17,45,4.80
2020,01,29,17,46,6.40
2020,01,29,17,47,11.30
2020,01,29,17,48,4.80
2020,01,29,17,49,4.80
2020,01,29,17,50,4.80
2020,01,29,17,51,4.80
2020,01,29,17,52,4.80
2020,01,29,17,53,6.40
2020,01,29,17,54,3.20
2020,01,29,17,55,8.10
2020,01,29,17,56,4.80
2020,01,29,17,57,4.80
2020,01,29,17,58,9.60
2020,01,29,17,59,4.80
2020,01,29,18,00,4.80
2020,01,29,18,13,6.40
2020,01,29,18,14,4.80
2020,01,29,18,15,4.80
2020,01,29,18,16,4.80
2020,01,29,18,17,1.60
2020,01,29,18,18,3.20
2020,01,29,18,19,1.60
2020,01,29,18,20,3.20
2020,01,29,18,21,3.20
2020,01,29,18,22,4.80
2020,01,29,18,23,3.20
2020,01,29,18,24,4.80
2020,01,29,18,25,1.60
2020,01,29,18,27,3.20
2020,01,29,18,28,4.80
2020,01,29,18,29,4.80
2020,01,29,18,30,3.20
2020,01,29,18,31,4.80
2020,01,29,18,32,3.20
2020,01,29,18,33,3.20
2020,01,29,18,56,6.40
2020,01,29,18,57,8.10
2020,01,29,18,58,6.40
2020,01,29,18,59,4.80
2020,01,29,19,00,4.80
2020,01,29,19,01,3.20
2020,01,29,19,02,3.20
2020,01,29,19,03,3.20
2020,01,29,19,04,4.80
2020,01,29,19,05,4.80
2020,01,29,19,06,3.20
2020,01,29,19,09,1.60
2020,01,29,21,15,4.80
2020,01,29,21,16,3.20
2020,01,29,21,26,4.80
2020,01,29,21,27,3.20
2020,01,29,21,28,3.20
2020,01,29,21,31,1.60
2020,01,29,21,54,3.20
2020,01,29,21,55,1.60
2020,01,29,22,06,1.60
2020,01,29,23,55,1.60
2020,01,29,23,56,3.20
